Weather History for Monroe, WI

Change the Weather History Date:

Monday, November 18, 2013

  Actual Average Record
Temperature  
Mean Temperature 33 °F -  
Max Temperature 39 °F 0 °F 69 °F (1999)
Min Temperature 27 °F - 6 °F (2014)
Degree Days  
Heating Degree Days 32    
Moisture  
Dew Point 24 °F    
Average Humidity 67    
Maximum Humidity 94    
Minimum Humidity 52    
Precipitation  
Precipitation 0.00 in - - ()
Sea Level Pressure  
Sea Level Pressure 30.12 in    
Wind  
Wind Speed 17 mph (WNW)    
Max Wind Speed 25 mph    
Max Gust Speed 37 mph    
Visibility 10 miles    
Events      
Averages and records for this station are not official NWS values.
T = Trace of Precipitation, MM = Missing Value Source: NWS Daily Summary

Daily Weather History Graph

Daily Weather History Graph

Search for Another Location

Airport:

Trip Planner

Search our weather history database for the weather conditions in past years. The results will help you decide how hot, cold, wet, or windy it might be!

Date:

Astronomy

Nov. 18, 2013 Rise Set
Actual Time 6:53 AM CST 4:32 PM CST
Civil Twilight 6:23 AM CST 5:03 PM CST
Nautical Twilight 5:48 AM CST 5:37 PM CST
Astronomical Twilight 5:15 AM CST 6:11 PM CST
Moon 5:34 PM CST 7:42 AM CST
Length of Visible Light 10h 40m
Length of Day
9h 39m
Full, 99% of the Moon is Illuminated
Nov 18
Full
Nov 25
Last Quarter
Dec 2
New
Dec 9
First Quarter
Dec 17
Full

Hourly Weather History & Observations

Time (CST) Temp. Windchill Dew Point Humidity Pressure Visibility Wind Dir Wind Speed Gust Speed Precip Events Conditions
10:15 AM 34.5 °F 22.0 °F 25.7 °F 70% 29.99 in 10.0 mi West 25.3 mph 31.1 mph N/A   Mostly Cloudy
10:35 AM 34.9 °F 23.0 °F 25.7 °F 69% 30.00 in 10.0 mi WNW 23.0 mph 28.8 mph N/A   Mostly Cloudy
10:55 AM 35.1 °F 23.8 °F 25.0 °F 67% 30.00 in 10.0 mi West 20.7 mph 28.8 mph N/A   Mostly Cloudy
11:15 AM 36.1 °F 25.2 °F 24.8 °F 63% 30.00 in 10.0 mi West 20.7 mph 33.4 mph N/A   Mostly Cloudy
11:35 AM 36.7 °F 25.1 °F 24.6 °F 62% 30.01 in 10.0 mi West 24.2 mph 32.2 mph N/A   Mostly Cloudy
11:55 AM 36.9 °F 25.4 °F 23.9 °F 59% 30.02 in 10.0 mi WNW 24.2 mph 32.2 mph N/A   Scattered Clouds
12:15 PM 36.9 °F 26.2 °F 25.5 °F 64% 30.03 in 10.0 mi West 20.7 mph 27.6 mph N/A   Mostly Cloudy
12:35 PM 38.3 °F 29.0 °F 25.9 °F 61% 30.03 in 10.0 mi WNW 17.3 mph 29.9 mph N/A   Mostly Cloudy
12:55 PM 38.3 °F 28.1 °F 24.3 °F 57% 30.04 in 10.0 mi WNW 20.7 mph 36.8 mph N/A   Scattered Clouds
1:15 PM 37.9 °F 27.3 °F 23.9 °F 57% 30.05 in 10.0 mi WNW 21.9 mph 29.9 mph N/A   Scattered Clouds
1:35 PM 39.4 °F 29.8 °F 23.9 °F 54% 30.06 in 10.0 mi NW 19.6 mph 31.1 mph N/A   Mostly Cloudy
1:55 PM 39.0 °F 30.3 °F 22.8 °F 52% 30.07 in 10.0 mi WNW 16.1 mph 29.9 mph N/A   Scattered Clouds
2:15 PM 38.8 °F 28.5 °F 23.4 °F 54% 30.07 in 10.0 mi West 21.9 mph 28.8 mph N/A   Clear
2:35 PM 39.0 °F 30.3 °F 23.0 °F 53% 30.07 in 10.0 mi WNW 16.1 mph 26.5 mph N/A   Clear
2:55 PM 39.0 °F 29.0 °F 23.2 °F 53% 30.07 in 10.0 mi West 20.7 mph 28.8 mph N/A   Clear
3:15 PM 38.5 °F 28.1 °F 22.8 °F 53% 30.08 in 10.0 mi WNW 21.9 mph 27.6 mph N/A   Clear
3:35 PM 38.3 °F 30.5 °F 22.6 °F 53% 30.09 in 10.0 mi WNW 12.7 mph 24.2 mph N/A   Clear
3:55 PM 37.8 °F 29.0 °F 22.5 °F 54% 30.10 in 10.0 mi WNW 15.0 mph 25.3 mph N/A   Clear
4:15 PM 36.9 °F 27.8 °F 22.6 °F 56% 30.11 in 10.0 mi West 15.0 mph 19.6 mph N/A   Clear
4:35 PM 35.8 °F 27.3 °F 23.0 °F 60% 30.11 in 10.0 mi WNW 12.7 mph 19.6 mph N/A   Clear
4:55 PM 35.1 °F 26.9 °F 22.6 °F 61% 30.13 in 10.0 mi West 11.5 mph - N/A   Clear
5:15 PM 34.2 °F 27.5 °F 22.8 °F 63% 30.13 in 10.0 mi West 8.1 mph - N/A   Clear
5:35 PM 33.8 °F 25.8 °F 23.0 °F 65% 30.14 in 10.0 mi West 10.4 mph - N/A   Clear
5:55 PM 33.3 °F 25.7 °F 23.2 °F 67% 30.15 in 10.0 mi West 9.2 mph - N/A   Clear
6:15 PM 32.9 °F 25.3 °F 23.7 °F 69% 30.15 in 10.0 mi WNW 9.2 mph - N/A   Clear
6:35 PM 32.0 °F 24.2 °F 23.7 °F 71% 30.16 in 10.0 mi WNW 9.2 mph - N/A   Clear
6:55 PM 32.0 °F 24.2 °F 23.9 °F 72% 30.16 in 10.0 mi WNW 9.2 mph - N/A   Clear
7:15 PM 32.0 °F 23.6 °F 23.9 °F 72% 30.18 in 10.0 mi WNW 10.4 mph - N/A   Clear
7:35 PM 31.1 °F 23.1 °F 23.7 °F 74% 30.19 in 10.0 mi WNW 9.2 mph - N/A   Clear
7:55 PM 30.9 °F 22.8 °F 23.5 °F 74% 30.19 in 10.0 mi West 9.2 mph - N/A   Clear
8:15 PM 30.9 °F 22.2 °F 23.5 °F 74% 30.20 in 10.0 mi WNW 10.4 mph - N/A   Clear
8:35 PM 30.0 °F 22.4 °F 23.4 °F 76% 30.20 in 10.0 mi WNW 8.1 mph - N/A   Clear
8:55 PM 29.8 °F 23.0 °F 23.0 °F 76% 30.20 in 10.0 mi WNW 6.9 mph - N/A   Clear
9:15 PM 29.7 °F 22.8 °F 22.6 °F 75% 30.21 in 10.0 mi WNW 6.9 mph - N/A   Clear
9:35 PM 29.1 °F 22.1 °F 22.6 °F 77% 30.22 in 10.0 mi WNW 6.9 mph - N/A   Clear
9:55 PM 29.1 °F 22.1 °F 22.5 °F 76% 30.22 in 10.0 mi WNW 6.9 mph - N/A   Clear
10:15 PM 28.6 °F 19.9 °F 22.1 °F 77% 30.22 in 10.0 mi WNW 9.2 mph - N/A   Clear
10:35 PM 28.4 °F 20.4 °F 22.1 °F 77% 30.24 in 10.0 mi West 8.1 mph - N/A   Clear
10:55 PM 27.9 °F 19.8 °F 25.0 °F 89% 30.23 in 10.0 mi NW 8.1 mph - N/A   Clear
11:35 PM 27.3 °F 19.1 °F 25.7 °F 94% 30.24 in 10.0 mi WNW 8.1 mph - N/A   Clear
11:55 PM 27.0 °F 20.5 °F 25.5 °F 94% 30.24 in 10.0 mi WNW 5.8 mph - N/A   Clear